ROMMA est une association bénévole à but non lucratif. Votre soutien est indispensable : ADHERER à ROMMA ou FAIRE un DON

Voiron - (38, Isère)

Voironnais (300 m)   Longitude: 05° 35' E   Latitude: 45° 23' N Station partenaire n°109
 

Détail journalier du     <<     >>

Température Precipitation Humidité Pression Vent Dir Rafale Dir. rafale Ensol.
Heure (°C) (mm) (%) (hPa) (km/h) (km/h) (min)
01:00 18.6039100131S82S0
02:00 18.4040100136S81SSE0
03:00 15.7054100227S95SSE0
04:00 9.5073100626NO63NO0
05:00 8.818010077OSO39ONO0
06:00 8.03.48510083E16S0
07:00 8.618410086SSE23SE0
08:00 9.10.280100911SSE35SSE0
09:00 10.107810103S15SSO0
10:00 10.607710112SSE13SE0
11:00 10.907210122SE8SSE0
12:00 11.607310133ENE11SE0
13:00 12.506510132ENE5ENE0
14:00 14.205410122NE24SSO0
15:00 15.1046101211SSO23SO60
16:00 15.204310127SO21SO60
17:00 15.604110117OSO21O60
18:00 14.704310127OSO16O60
19:00 12.905210133ONO13ONO0
20:00 10.906310141NO5NO0
21:00 9.706910151NO5NO0
22:00 8.907210152O8NNO0
23:00 8.4075101605O0
minuit 7.707810171O6O0

Graphique du 07-03-2019

 

Serveur OMMA